#timestamp,LO_Frequency,Hit,StdDev 
1583352015.7,286046994.5,N
1583352035.5,286046994.8,N
1583352055.4,286046996.6,N
1583352075.2,286046997.6,N
1583352095.1,286046988.0,N
1583352096.0,286046988.0,N
1583352115.8,286046983.8,N
1583352135.6,286046986.7,N
1583352155.5,286046982.9,N
1583352175.3,286046981.2,N
1583352195.2,286046977.2,Y
1583352215.9,286046978.1,P
1583352235.7,286046976.1,P
1583352255.6,286046977.0,P
1583352275.4,286046971.0,Y
1583352295.2,286046986.3,P
1583352315.1,286046995.6,N
1583352316.0,286046995.6,N
1583352335.8,286046991.2,N
1583352355.7,286046993.8,N
1583352375.5,286046996.8,N
1583352395.3,286046999.3,N
1583352415.2,286047002.5,N
1583352435.0,286047004.5,N
1583352435.9,286047004.5,N
1583352455.8,286047016.8,N
1583352475.6,286047026.6,N
1583352495.4,286047022.2,N
1583352515.3,286047024.7,N
1583352535.1,286047014.1,N
1583352555.8,286047017.8,N
1583352575.7,286047020.1,N
1583352595.5,286047018.5,N
1583352615.4,286047007.7,N
1583352635.2,286047010.3,N
1583352655.0,286047018.3,N
1583352655.9,286047018.3,N
1583352675.8,286047018.1,N
1583352695.6,286047020.2,N
1583352715.4,286047025.7,N
1583352735.3,286047022.8,N
1583352755.1,286047019.7,N
1583352775.9,286047023.2,N
1583352795.7,286047029.6,N
1583352815.5,286047028.8,N
1583352835.4,286047035.1,N
1583352855.2,286047037.9,Y
1583352875.0,286047027.0,P
1583352875.9,286047027.0,P
1583352895.8,286047033.4,P
1583352915.6,286047037.3,Y
1583352935.5,286047019.5,P
1583352955.3,286047020.5,P
1583352975.1,286047020.6,P
1583352995.9,286047020.9,Y
1583353015.7,286047000.2,P
1583353035.5,286046993.4,N
1583353055.4,286046993.9,N
1583353075.2,286046990.8,N
1583353095.1,286046988.1,N
1583353096.0,286046988.1,N
1583353115.8,286046991.1,N
1583353135.6,286046991.6,N
1583353155.5,286046994.6,N
1583353175.3,286046985.5,N
1583353195.1,286046985.5,N
1583353215.9,286046983.2,N
1583353235.7,286046987.4,N
1583353255.6,286046993.1,N
1583353275.4,286046988.1,N
1583353295.2,286046987.0,N
1583353315.1,286046990.3,N
1583353316.0,286046990.3,N
1583353335.8,286046989.1,N
1583353355.6,286046982.9,N
1583353375.5,286046982.5,N
1583353395.3,286046988.5,N
1583353415.2,286046987.6,N
1583353435.9,286046986.6,N
1583353455.7,286046982.6,N
1583353475.6,286046987.1,N
1583353495.4,286046992.2,N
1583353515.2,286046996.6,N
1583353535.1,286046996.5,N
1583353536.0,286046996.5,N
1583353555.8,286046994.1,N
1583353575.7,286046987.0,Y
1583353595.5,286046996.0,P
1583353615.3,286046998.1,N
1583353635.2,286047005.6,N
1583353655.0,286047009.0,N
1583353655.9,286047009.0,N
1583353675.8,286047008.7,N
1583353695.6,286047002.2,N
1583353715.4,286047004.2,N
1583353735.3,286047005.0,N
1583353755.1,286047007.4,N
1583353775.8,286046999.6,N
1583353795.7,286046996.6,N
1583353815.5,286047002.7,N
1583353835.4,286046995.5,N
1583353855.2,286046986.5,N
1583353875.0,286046989.4,N
1583353875.9,286046989.4,N
1583353895.8,286046994.7,N
1583353915.6,286047005.7,N
1583353935.5,286046998.6,N
1583353955.3,286047000.9,N
1583353975.1,286046995.0,N
1583353995.9,286046997.7,N
1583354015.7,286046992.9,N
1583354035.5,286046990.9,N
1583354055.4,286046994.4,N
1583354075.2,286046999.8,N
1583354095.1,286047009.2,N
1583354096.0,286047009.2,N
1583354115.8,286047007.3,N
1583354135.6,286047001.0,N
1583354155.5,286046998.6,N
1583354175.3,286047005.1,N
1583354195.1,286047005.9,N
1583354215.9,286047006.1,N
1583354235.7,286047009.7,N
1583354255.6,286047004.6,N
1583354275.4,286047004.8,N
1583354295.2,286047007.6,N
1583354315.1,286047010.8,N
1583354316.0,286047010.8,N
1583354335.8,286047003.6,N
1583354355.7,286046998.2,N
1583354375.5,286046998.5,N
1583354395.3,286047005.9,N
1583354415.2,286046999.2,N
1583354435.0,286047001.4,N
1583354435.9,286047001.4,N
1583354455.8,286047005.3,N
1583354475.6,286047004.2,N
1583354495.4,286047001.9,N
1583354515.3,286047000.3,N
1583354535.1,286047008.3,N
1583354555.8,286047001.6,N
1583354575.7,286046996.6,N
1583354595.5,286046999.5,N
1583354615.4,286047000.4,N
1583354635.2,286047000.8,N
1583354655.0,286047005.6,N
1583354655.9,286047005.6,N
1583354675.8,286047010.2,N
1583354695.6,286047013.0,Y
1583354715.5,286047005.2,P
1583354735.3,286047003.3,P
1583354755.1,286047002.1,N
1583354775.9,286046999.2,N
1583354795.7,286047007.3,Y
1583354815.6,286047003.5,P
1583354835.4,286046995.4,P
1583354855.2,286046997.4,N
1583354875.1,286046992.5,N
1583354876.0,286046992.5,N
1583354895.8,286046996.3,N
1583354915.6,286046998.7,N
1583354935.5,286046993.9,N
1583354955.3,286046997.8,N
1583354975.2,286046996.4,N
1583354995.9,286046998.4,N
1583355015.7,286047004.5,N
1583355035.6,286047008.9,N
1583355055.4,286047005.3,N
1583355075.3,286047004.1,N
1583355095.1,286047005.9,N
1583355096.0,286047005.9,N
1583355115.8,286047002.6,N
1583355135.7,286046999.3,N
1583355155.5,286047006.5,N
1583355175.3,286047005.0,N
1583355195.2,286046996.9,N
1583355215.0,286046996.2,N
1583355215.9,286046996.2,N
1583355235.8,286046997.2,N
1583355255.6,286046997.9,N
1583355275.4,286046994.3,N
1583355295.3,286046994.6,N
1583355315.1,286046991.1,N
1583355335.9,286046994.5,N
1583355355.7,286046996.9,N
1583355375.5,286046998.3,N
1583355395.4,286046991.7,N
1583355415.2,286046993.9,N
1583355435.1,286047001.6,N
1583355436.0,286047001.6,N
1583355455.8,286047005.2,N
1583355475.6,286047005.8,N
1583355495.5,286047007.4,N
1583355515.3,286047006.7,N
1583355535.1,286047002.9,N
1583355555.9,286047010.6,N
1583355575.7,286047009.4,N
1583355595.6,286046999.4,N
